Weather History for Panama City, FL

Change the Weather History Date:

Tuesday, October 1, 2013

  Actual Average Record
Temperature  
Mean Temperature 77 °F -  
Max Temperature 87 °F - 88 °F (2014)
Min Temperature 66 °F - 53 °F (2011)
Degree Days  
Heating Degree Days 0    
Cooling Degree Days 12    
Growing Degree Days 25 (Base 50)    
Moisture  
Dew Point 70 °F    
Average Humidity 83    
Maximum Humidity 100    
Minimum Humidity 65    
Precipitation  
Precipitation 0.01 in - 1.48 in (2012)
Month to date precipitation  
Year to date precipitation  
Sea Level Pressure  
Sea Level Pressure 30.06 in    
Wind  
Wind Speed 5 mph (NE)    
Max Wind Speed 7 mph    
Max Gust Speed -    
Visibility 10 miles    
Events Rain    
T = Trace of Precipitation, MM = Missing Value Source: NWS Daily Summary

Daily Weather History Graph

Daily Weather History Graph

Search for Another Location

Airport:

Trip Planner

Search our weather history database for the weather conditions in past years. The results will help you decide how hot, cold, wet, or windy it might be!

Date:

Astronomy

Oct. 01, 2013 Rise Set
Actual Time 7:36 AM EDT 7:28 PM EDT
Civil Twilight 7:12 AM EDT 7:52 PM EDT
Nautical Twilight 6:44 AM EDT 8:19 PM EDT
Astronomical Twilight 6:17 AM EDT 8:47 PM EDT
Moon 4:22 AM EDT (10/1) 5:21 PM EDT (10/1)
Length of Visible Light 12h 39m
Length of Day
11h 51m
Waning Crescent, 12% of the Moon is Illuminated
Oct 1
Waning Crescent
Oct 4
New
Oct 11
First Quarter
Oct 18
Full
Oct 26
Last Quarter

Hourly Weather History & Observations

Time (EDT) Temp. Heat Index Dew Point Humidity Pressure Visibility Wind Dir Wind Speed Gust Speed Precip Events Conditions
12:53 AM 69.1 °F - 69.1 °F 100% 30.04 in 10.0 mi ENE 5.8 mph - N/A   Clear
1:53 AM 69.1 °F - 66.9 °F 93% 30.04 in 10.0 mi ENE 4.6 mph - N/A   Clear
2:53 AM 68.0 °F - 66.9 °F 96% 30.04 in 10.0 mi NE 4.6 mph - N/A   Clear
3:53 AM 66.9 °F - 66.9 °F 100% 30.04 in 10.0 mi East 3.5 mph - N/A   Clear
4:53 AM 66.0 °F - 66.0 °F 100% 30.04 in 10.0 mi NE 4.6 mph - N/A   Partly Cloudy
5:53 AM 66.9 °F - 66.9 °F 100% 30.05 in 10.0 mi NE 6.9 mph - N/A   Scattered Clouds
6:53 AM 68.0 °F - 66.9 °F 96% 30.06 in 10.0 mi ENE 4.6 mph - N/A   Clear
7:53 AM 68.0 °F - 66.9 °F 96% 30.07 in 10.0 mi NE 6.9 mph - N/A   Partly Cloudy
8:32 AM 69.8 °F - 66.2 °F 88% 30.05 in 10.0 mi NE 5.8 mph - N/A   Mostly Cloudy
8:53 AM 69.1 °F - 66.9 °F 93% 30.09 in 5.0 mi NE 5.8 mph - 0.01 in Rain Rain
9:10 AM 69.8 °F - 68.0 °F 94% 30.06 in 7.0 mi ENE 4.6 mph - 0.00 in Rain Light Rain
9:44 AM 69.8 °F - 68.0 °F 94% 30.07 in 10.0 mi NE 6.9 mph - 0.00 in   Overcast
9:53 AM 69.1 °F - 69.1 °F 100% 30.11 in 10.0 mi NNE 4.6 mph - 0.00 in Rain Light Rain
10:12 AM 71.6 °F - 69.8 °F 94% 30.08 in 10.0 mi NNE 4.6 mph - 0.00 in   Mostly Cloudy
10:53 AM 73.9 °F - 71.1 °F 91% 30.11 in 10.0 mi North 4.6 mph - 0.00 in   Mostly Cloudy
11:53 AM 80.1 °F 83.8 °F 72.0 °F 76% 30.11 in 10.0 mi Variable 3.5 mph - N/A   Mostly Cloudy
12:53 PM 82.9 °F 88.8 °F 73.0 °F 72% 30.09 in 10.0 mi NNE 5.8 mph - N/A   Mostly Cloudy
1:53 PM 84.9 °F 90.7 °F 72.0 °F 65% 30.07 in 10.0 mi NNE 4.6 mph - N/A   Partly Cloudy
2:53 PM 82.9 °F 88.0 °F 72.0 °F 69% 30.04 in 10.0 mi North 5.8 mph - N/A   Mostly Cloudy
3:53 PM 84.0 °F 89.6 °F 72.0 °F 67% 30.03 in 10.0 mi ENE 4.6 mph - N/A   Overcast
4:53 PM 82.9 °F 88.0 °F 72.0 °F 69% 30.03 in 10.0 mi Calm Calm - N/A   Mostly Cloudy
5:53 PM 82.0 °F 88.6 °F 75.0 °F 79% 30.03 in 10.0 mi Calm Calm - 0.00 in   Overcast
6:53 PM 81.0 °F 86.2 °F 73.9 °F 79% 30.04 in 10.0 mi NNE 5.8 mph - N/A   Overcast
7:53 PM 78.1 °F - 75.9 °F 93% 30.04 in 10.0 mi NNE 3.5 mph - N/A   Overcast
8:53 PM 79.0 °F - 73.9 °F 84% 30.06 in 10.0 mi Calm Calm - N/A   Overcast
9:53 PM 78.1 °F - 75.0 °F 90% 30.08 in 10.0 mi Calm Calm - N/A   Overcast
10:53 PM 77.0 °F - 73.9 °F 90% 30.09 in 10.0 mi East 3.5 mph - N/A   Overcast
11:53 PM 75.9 °F - 73.9 °F 94% 30.09 in 10.0 mi Calm Calm - N/A   Overcast